Regional Weather Roundup
Issued by NWS Newport/Morehead, NC

Current Version | Previous Version | Graphics & Text | Print | Product List | Glossary Off
Versions: 1 2 3 4 5 6 7 8 9 10 11 12 13 14 15 16 17 18 19 20 21 22 23 24 25 26 27 28 29 30 31 32 33 34 35 36 37 38 39 40 41 42 43 44 45 46 47 48 49 50
721 ASUS42 KMHX 152325 RWRMHX WEATHER ROUNDUP FOR EASTERN NORTH CAROLINA NATIONAL WEATHER SERVICE NEWPORT/MOREHEAD CITY NC 600 PM EST FRI DEC 15 2017 NOTE: "FAIR" INDICATES FEW OR NO CLOUDS BELOW 12,000 FEET WITH NO SIGNIFICANT WEATHER AND/OR OBSTRUCTIONS TO VISIBILITY NCZ015>017-031-032-045>047-102-103-160000- NORTH COAST CITY SKY/WX TMP DP RH WIND PRES REMARKS EDENTON MOCLDY 45 33 63 NW10 29.96R ELIZABETH CITY CLOUDY 43 34 70 W12G23 29.94R KITTY HAWK CLOUDY 46 35 66 NW12G23 29.90R MANTEO CLOUDY 46 35 65 NW13G21 29.93R $$ NCZ045>047-081-094-103-104-160000- CENTRAL COAST CITY SKY/WX TMP DP RH WIND PRES REMARKS FRISCO CLOUDY 57 44 62 W12G20 29.90R $$ NCZ095-097-098-100-101-160000- SOUTHERN COAST CITY SKY/WX TMP DP RH WIND PRES REMARKS BEAUFORT CLOUDY 54 47 77 W7 29.92R CEDAR ISLAND NOT AVBL JACKSONVILLE CLOUDY 54 40 59 W6 29.93R PINEY ISLAND N/A N/A N/A N/A SW8 29.91R WILMINGTON PTCLDY 54 42 64 SW6 29.94R $$ NCZ011>013-027>030-043-044-078>080-089-090>093-098-160000- COASTAL PLAIN CITY SKY/WX TMP DP RH WIND PRES REMARKS AHOSKIE PTCLDY 38 27 65 CALM 29.98R CLINTON CLOUDY 48 37 64 NW7 29.98R ELIZABETHTOWN NOT AVBL GOLDSBORO CLOUDY 46 30 55 N13 29.96R GREENVILLE PTCLDY 43 30 61 N5 30.00R HAVELOCK CLOUDY 51 42 71 SW7 29.92R KENANSVILLE CLOUDY 48 36 61 N13G18 29.97R KINSTON PTCLDY 46 32 57 NW13G18 29.98R NEW BERN CLOUDY 52 38 58 NW12 29.93R RICHLANDS CLOUDY 54 38 54 W6 29.94R ROCKY MOUNT CLOUDY 41 30 65 NW5 29.99R WASHINGTON PTCLDY 45 31 58 NW10G16 29.97R WHITEVILLE PTCLDY 54 39 57 CALM 29.96R $$ AMZ130-135-150-152-154-156-158-170-250-252-270-ANZ085-086-088-633-658-670-160000- MARINE OBSERVATIONS STATION/POSITION TIME TEMP WIND PRES WAVE SWELL AIR SEA DIR/SP/G HT/PER HT/PER (UTC) (F) (DEG/KT/KT) (MB) (FT/S) (FT/S) CHESAPEAKE LIGHT NOT AVBL 64 E VA BEACH 2250 49 60 290/ 27/ 31 1010.3 5/ 4 DUCK 2300 46 53 300/ 20/ 23 1012.5 2 E DUCK 2300 55 N/A 2/ 6 OREGON INLET 2300 48 49 300/ 15/ 21 1012.2 13E OREGON INLT 2248 64 N/A 4/ 6 3/ 6 HATTERAS CG 2300 56 55 240/ 12/ 16 1012.0 DIAMOND BUOY 2310 62 73 260/ 23/ 29 1012.4 CAPE LOOKOUT 2300 250/ 10/ 12 1013.2 BEAUFORT LAB 2300 55 51 240/ 6/ 9 1012.9 30 SE NEW RVR IN 2208 60 65 240/ 17/ 21 1013.1 30 SE NEW RVR IN 2300 65 N/A 5/ 5 27 SE WRIGHTSVLE 2308 60 64 240/ 19/ 25 1014.3 5 SE WRIGHTSVLE 2208 56 56 240/ 10/ 14 1013.1 225 S CAPE HAT 2250 72 74 250/ 17/ 21 1015.2 5/ 7 2/11 41 SE CHARLESTON 2310 63 73 250/ 19/ 23 1015.3 $$

USA.gov is the U.S. government's official web portal to all federal, state and local government web resources and services.